This is the latest recevied weather packets stored in our database for station/object HP1COO-13. If no packets are shown the sender has not sent any weather packets the latest 10 day(s).
| Time | Temp. | Humidity | Pressure | Rain* | Wind** | Luminosity | Snow |
|---|---|---|---|---|---|---|---|
| 1787618340 | 27.78° C | 87% | 1007.7 hPa | 0 mm | - | - | - |
| 1787617707 | 28.33° C | 87% | 1007.8 hPa | 0 mm | - | - | - |
| 1787617074 | 28.33° C | 86% | 1007.5 hPa | 0 mm | - | - | - |
| 1787616441 | 28.89° C | 85% | 1007.4 hPa | 0 mm | - | - | - |
| 1787615807 | 28.89° C | 83% | 1007.4 hPa | 0 mm | - | - | - |
| 1787615175 | 28.89° C | 83% | 1007 hPa | 0 mm | - | - | - |
| 1787614542 | 29.44° C | 83% | 1007.2 hPa | 0 mm | - | - | - |
| 1787613909 | 29.44° C | 84% | 1006.7 hPa | 0 mm | - | - | - |
| 1787613276 | 30° C | 81% | 1006.5 hPa | 0 mm | - | - | - |
| 1787612643 | 30° C | 82% | 1006.4 hPa | 0 mm | - | - | - |
| 1787612010 | 30.56° C | 82% | 1006.3 hPa | 0 mm | - | - | - |
| 1787611377 | 30.56° C | 82% | 1006.1 hPa | 0 mm | - | - | - |
| 1787610744 | 30.56° C | 80% | 1005.8 hPa | 0 mm | - | - | - |
| 1787610111 | 31.11° C | 80% | 1005.9 hPa | 0 mm | - | - | - |
| 1787609478 | 30.56° C | 80% | 1005.9 hPa | 0 mm | - | - | - |
| 1787608845 | 30.56° C | 79% | 1005.5 hPa | 0 mm | - | - | - |
| 1787608212 | 31.11° C | 81% | 1005.7 hPa | 0 mm | - | - | - |
| 1787607579 | 30.56° C | 83% | 1005.4 hPa | 0 mm | - | - | - |
| 1787606946 | 30.56° C | 84% | 1005.4 hPa | 0 mm | - | - | - |
| 1787606313 | 30° C | 87% | 1005.5 hPa | 0 mm | - | - | - |
| 1787605047 | 29.44° C | 88% | 1005.2 hPa | 0 mm | - | - | - |
| 1787604414 | 29.44° C | 89% | 1005.2 hPa | 0 mm | - | - | - |
| 1787603781 | 29.44° C | 89% | 1005.6 hPa | 0 mm | - | - | - |
| 1787603148 | 28.89° C | 89% | 1005.9 hPa | 0 mm | - | - | - |
| 1787602515 | 29.44° C | 87% | 1005.8 hPa | 0 mm | - | - | - |
* Rain latest hour (hover to see other rain measurements)
** Current wind speed in m/s (hover to see current wind gust speed)